This is the latest recevied weather packets stored in our database for station/object LA9TLA-1. If no packets are shown the sender has not sent any weather packets the latest 10 day(s).
| Time | Temp. | Humidity | Pressure | Rain* | Wind** | Luminosity | Snow |
|---|---|---|---|---|---|---|---|
| 1777499867 | 7.22° C | 99% | 1041.5 hPa | 0 mm | - | - | - |
| 1777498067 | 7.22° C | 99% | 1041.5 hPa | 0 mm | - | - | - |
| 1777496267 | 7.78° C | 99% | 1041.3 hPa | 0 mm | - | - | - |
| 1777494471 | 7.78° C | 99% | 1041.5 hPa | 0 mm | - | - | - |
| 1777492668 | 7.78° C | 99% | 1041.4 hPa | 0 mm | - | - | - |
| 1777490867 | 8.33° C | 99% | 1041 hPa | 0 mm | - | - | - |
| 1777489066 | 9.44° C | 99% | 1041 hPa | 0 mm | - | - | - |
| 1777487266 | 10° C | 99% | 1041 hPa | 0 mm | - | - | - |
| 1777485470 | 10.56° C | 99% | 1040.6 hPa | 0 mm | - | - | - |
| 1777483666 | 11.67° C | 99% | 1040.9 hPa | 0 mm | - | - | - |
| 1777480069 | 12.22° C | 99% | 1040.9 hPa | 0 mm | - | - | - |
| 1777478266 | 11.67° C | 99% | 1041 hPa | 0 mm | - | - | - |
| 1777474667 | 12.22° C | 99% | 1041.3 hPa | 0 mm | - | - | - |
| 1777472870 | 11.67° C | 99% | 1041.3 hPa | 0 mm | - | - | - |
| 1777471066 | 11.67° C | 99% | 1041.5 hPa | 0 mm | - | - | - |
| 1777469267 | 12.22° C | 99% | 1041.3 hPa | 0 mm | - | - | - |
| 1777467468 | 12.22° C | 99% | 1041.4 hPa | 0 mm | - | - | - |
| 1777463870 | 12.22° C | 99% | 1041.3 hPa | 0 mm | - | - | - |
| 1777462066 | 12.22° C | 92% | 1041.3 hPa | 0 mm | - | - | - |
| 1777460267 | 11.67° C | 99% | 1041.4 hPa | 0 mm | - | - | - |
| 1777456671 | 11.67° C | 99% | 1041.5 hPa | 0 mm | - | - | - |
| 1777454867 | 11.11° C | 99% | 1041.8 hPa | 0 mm | - | - | - |
| 1777453067 | 11.11° C | 99% | 1041.8 hPa | 0 mm | - | - | - |
| 1777449467 | 9.44° C | 99% | 1041.6 hPa | 0 mm | - | - | - |
| 1777444072 | 8.89° C | 99% | 1041.3 hPa | 0 mm | - | - | - |
* Rain latest hour (hover to see other rain measurements)
** Current wind speed in m/s (hover to see current wind gust speed)